Showing default

HULIANWANG DIGUI-147, 67523

Orbit data source: Space-Track

HULIANWANG DIGUI-147, 67523 is a payload satellite owned by Zhongguo Xingwang (CN) in LEO that was launched on Mon, 19 Jan 2026 UTC via a CHANG ZHENG 12 launch vehicle from the Wenchang Satellite Launch Center (WSC). Payload-class satellites include a variety of spacecraft equipped with specific instruments for various scientific and technological missions. These include communications satellites like Starlink; space stations such as the ISS; scientific satellites like the Hubble; Earth observation satellites from companies like Planet Labs, Umbra, and HawkEye 360; GPS; miniature CubeSats for education and research; and military/defense satellites.

Loading next visibility...
Identifier
67523, 2026-013B
Orbit
LEO
Country
Flag of CNCN / PRC
Related business
Manufacturer
YINNT
Mission
Operational Civil Communications
Bus & Motor
XINGWANG Y, Unknown motor
Mass
~800 kg wet, ~800 kg dry
Launch date (UTC)
2026-01-19 (5 months ago)
Launch vehicle
CHANG ZHENG 12
Launch site
Wenchang Satellite Launch Center (WSC)
Object type
Payload
Rocket body
Debris
Shape & HBR
Box + 2 Pan, 2.0 m
Radar Cross Section
5.935 m², Large (>1 m²)

Expand to show TLE details & history
Last TLE update: 4 hours ago

TLE from 4 hours ago
0 HULIANWANG DIGUI-147
1 67523U 26013B   26163.86535594 -.00000077  00000-0  10039-3 0  9999
2 67523  50.0062  11.2823 0001054  96.7684 263.3308 13.29330791 19479
Epoch: 2026-06-12T20:46Z
TLE epoch observation values (Epoch: 2026-06-12T20:46:06.753Z)
Latitude
-0.00002°
Longitude
158.56548°
Altitude
1,149.887 km
Speed
7.279 km/s
True Right ascension
00h 45m 07s
True Declination
0° 00' 00"
Sunlit
Object was in daylight at epoch
Visualization orbit readout
Latitude
Unknown
Longitude
Unknown
Altitude
Unknown
Speed
Unknown
Apparent Right ascension
Unknown
Apparent Declination
Unknown
Sunlit
N/A
Visualization observer readout
Local Sidereal Time
11:33:35
Azimuth
Unknown
Elevation
Unknown
Doppler factor
Unknown
Orbital elements
Apogee altitude
1,150.786 km
Perigee altitude
1,149.199 km
Semi-major axis
7,528.13 km
Eccentricity
0.00011
Inclination
50.0062°
RAAN
11.2823°
Arg. of periapsis
96.7684°
True anomaly
263.3188°
Mean anomaly
263.3308°
Eccentric anomaly
263.3248°
Mean motion
3.32286 °/min
Orbital period
108.34 mins
BSTAR
0.00010039
Loading maneuver chart data...
Computing Atmospheric mass density...
Loading historical data...
Loading historical data...
Loading historical data...
Loading historical data...
Loading historical data...
Loading historical data...
Loading historical data...

Documentation

Showing up to 5 results
|